Danville, IL

12:38 AM CDT on April 25, 2017 (GMT -0500)
Vermilion County

Weather History for KDNV - November, 2012

Change the Weather History Date:

Sunday, November 4, 2012

  Actual Average (KCMI) Record (KCMI)
Temperature  
Mean Temperature 38 °F -  
Max Temperature 47 °F 53 °F 78 °F (2003)
Min Temperature 29 °F 35 °F 28 °F (2012)
Degree Days  
Heating Degree Days 27    
Moisture  
Dew Point 30 °F    
Average Humidity 79    
Maximum Humidity 97    
Minimum Humidity 45    
Precipitation  
Precipitation 0.00 in - - ()
Sea Level Pressure  
Sea Level Pressure 30.17 in    
Wind  
Wind Speed 4 mph (NNW)    
Max Wind Speed 9 mph    
Max Gust Speed 17 mph    
Visibility 9 miles    
Events      
Averages and records for this station are not official NWS values.
T = Trace of Precipitation, MM = Missing Value Source: NWS Daily Summary

Daily Weather History Graph

Daily Weather History Graph

Search for Another Location

Airport or City:

Trip Planner

Search our weather history database for the weather conditions in past years. The results will help you decide how hot, cold, wet, or windy it might be!

Date:

Astronomy

Nov. 04, 2012 Rise Set
Actual Time 6:23 AM CST 4:43 PM CST
Civil Twilight 5:55 AM CST 5:11 PM CST
Nautical Twilight 5:23 AM CST 5:44 PM CST
Astronomical Twilight 4:51 AM CST 6:15 PM CST
Moon 9:21 PM CST (11/4) 11:07 AM CST (11/4)
Length of Visible Light 11h 16m
Length of Day
10h 19m
Waning Gibbous, 72% of the Moon is Illuminated
Nov 4
Waning Gibbous
Nov 6
Last Quarter
Nov 13
New
Nov 20
First Quarter
Nov 28
Full

Hourly Weather History & Observations

Time (CST) Temp. Windchill Dew Point Humidity Pressure Visibility Wind Dir Wind Speed Gust Speed Precip Events Conditions
12:15 AM 31.6 °F - 29.3 °F 91% 30.17 in 10.0 mi Calm Calm - N/A   Clear
12:35 AM 31.1 °F - 29.3 °F 93% 30.17 in 10.0 mi Calm Calm - N/A   Clear
12:55 AM 31.8 °F 27.3 °F 29.5 °F 91% 30.16 in 10.0 mi NNW 4.6 mph - N/A   Clear
1:15 AM 31.1 °F 25.4 °F 28.9 °F 92% 30.16 in 10.0 mi NNW 5.8 mph - N/A   Clear
1:35 AM 30.2 °F 24.3 °F 28.4 °F 93% 30.16 in 10.0 mi North 5.8 mph - N/A   Clear
1:55 AM 30.6 °F 24.7 °F 28.6 °F 92% 30.17 in 10.0 mi NNW 5.8 mph - N/A   Unknown
1:15 AM 31.1 °F 24.5 °F 29.1 °F 92% 30.17 in 10.0 mi NNW 6.9 mph - N/A   Clear
1:35 AM 31.3 °F 24.7 °F 29.1 °F 92% 30.17 in 10.0 mi NNW 6.9 mph - N/A   Clear
1:55 AM 32.0 °F 25.6 °F 29.8 °F 92% 30.17 in 10.0 mi NNW 6.9 mph - N/A   Mostly Cloudy
2:15 AM 32.0 °F 26.4 °F 30.4 °F 94% 30.17 in 10.0 mi NNW 5.8 mph - N/A   Unknown
2:35 AM 32.0 °F 27.5 °F 30.2 °F 93% 30.16 in 10.0 mi North 4.6 mph - N/A   Unknown
2:55 AM 31.6 °F - 29.8 °F 93% 30.16 in 10.0 mi Calm Calm - N/A   Unknown
3:15 AM 31.3 °F 27.9 °F 29.3 °F 92% 30.16 in 10.0 mi NNW 3.5 mph - N/A   Unknown
3:35 AM 30.9 °F - 29.3 °F 94% 30.17 in 10.0 mi Calm Calm - N/A   Unknown
3:55 AM 32.0 °F 27.5 °F 30.6 °F 94% 30.18 in 10.0 mi NNW 4.6 mph - N/A   Unknown
4:15 AM 32.7 °F 29.6 °F 31.1 °F 94% 30.18 in 10.0 mi North 3.5 mph - N/A   Unknown
4:35 AM 31.8 °F - 29.8 °F 92% 30.17 in 7.0 mi Calm Calm - N/A   Unknown
4:55 AM 32.2 °F - 30.9 °F 95% 30.18 in 10.0 mi Calm Calm - N/A   Unknown
5:15 AM 31.8 °F - 30.2 °F 94% 30.18 in 7.0 mi Calm Calm - N/A   Unknown
5:35 AM 29.7 °F 26.1 °F 28.2 °F 94% 30.18 in 7.0 mi NNW 3.5 mph - N/A   Unknown
5:55 AM 29.5 °F 23.4 °F 28.6 °F 96% 30.18 in 5.0 mi NNW 5.8 mph - N/A   Mist
6:15 AM 31.1 °F 26.4 °F 30.0 °F 96% 30.19 in 5.0 mi NW 4.6 mph - N/A   Mist
6:35 AM 32.0 °F 28.7 °F 31.1 °F 96% 30.19 in 3.0 mi NNW 3.5 mph - N/A   Mist
6:55 AM 32.0 °F 27.5 °F 31.3 °F 97% 30.20 in 3.0 mi NW 4.6 mph - N/A   Mist
7:15 AM 32.9 °F - 32.0 °F 96% 30.20 in 4.0 mi Calm Calm - N/A   Mist
7:35 AM 33.1 °F - 32.0 °F 96% 30.19 in 3.0 mi Calm Calm - N/A   Mist
7:55 AM 33.6 °F - 32.2 °F 94% 30.20 in 4.0 mi Calm Calm - N/A   Mist
8:15 AM 35.8 °F 33.0 °F 33.4 °F 91% 30.20 in 5.0 mi North 3.5 mph - N/A   Mist
8:35 AM 37.6 °F 35.1 °F 34.2 °F 87% 30.20 in 7.0 mi NNW 3.5 mph - N/A   Unknown
8:55 AM 39.0 °F 35.7 °F 33.4 °F 80% 30.20 in 10.0 mi North 4.6 mph - N/A   Unknown
9:15 AM 40.1 °F 36.1 °F 34.2 °F 79% 30.20 in 10.0 mi NNW 5.8 mph - N/A   Unknown
9:35 AM 41.9 °F 39.0 °F 34.7 °F 76% 30.20 in 10.0 mi NW 4.6 mph - N/A   Unknown
9:55 AM 42.3 °F 38.6 °F 35.1 °F 76% 30.20 in 10.0 mi NNW 5.8 mph - N/A   Scattered Clouds
10:15 AM 42.8 °F 38.6 °F 35.6 °F 76% 30.20 in 10.0 mi NNW 6.9 mph - N/A   Mostly Cloudy
10:35 AM 43.9 °F 40.5 °F 35.8 °F 73% 30.20 in 10.0 mi NNW 5.8 mph - N/A   Scattered Clouds
10:55 AM 43.2 °F 40.5 °F 35.1 °F 73% 30.20 in 10.0 mi NE 4.6 mph - N/A   Scattered Clouds
11:15 AM 43.9 °F 39.9 °F 35.1 °F 71% 30.20 in 10.0 mi North 6.9 mph - N/A   Mostly Cloudy
11:35 AM 45.7 °F 42.7 °F 34.0 °F 64% 30.18 in 10.0 mi NNE 5.8 mph - N/A   Scattered Clouds
11:55 AM 45.1 °F 40.8 °F 33.3 °F 63% 30.18 in 10.0 mi North 8.1 mph - N/A   Scattered Clouds
12:15 PM 44.2 °F 41.0 °F 32.0 °F 62% 30.18 in 10.0 mi NW 5.8 mph - N/A   Mostly Cloudy
12:35 PM 46.4 °F 42.4 °F 31.1 °F 55% 30.17 in 10.0 mi North 8.1 mph 17.3 mph N/A   Mostly Cloudy
12:55 PM 46.6 °F - 31.1 °F 55% 30.16 in 10.0 mi NNW 9.2 mph - N/A   Unknown
1:15 PM 46.0 °F 43.9 °F 30.4 °F 54% 30.16 in 10.0 mi NNW 4.6 mph - N/A   Unknown
1:35 PM 46.4 °F 45.2 °F 29.7 °F 52% 30.15 in 10.0 mi North 3.5 mph - N/A   Unknown
1:55 PM 47.1 °F - 30.2 °F 52% 30.15 in 10.0 mi North 5.8 mph - N/A   Unknown
2:15 PM 46.8 °F - 29.1 °F 50% 30.15 in 10.0 mi NW 9.2 mph - N/A   Unknown
2:35 PM 47.5 °F - 28.4 °F 48% 30.15 in 10.0 mi NW 4.6 mph - N/A   Unknown
2:55 PM 47.8 °F - 27.5 °F 45% 30.14 in 10.0 mi WNW 5.8 mph - N/A   Unknown
3:15 PM 47.8 °F - 27.5 °F 45% 30.14 in 10.0 mi WNW 8.1 mph - N/A   Clear
3:35 PM 47.3 °F - 27.1 °F 46% 30.14 in 10.0 mi NW 6.9 mph - N/A   Clear
3:55 PM 46.8 °F - 28.4 °F 49% 30.14 in 10.0 mi NW 5.8 mph - N/A   Clear
4:15 PM 45.3 °F 41.6 °F 29.1 °F 53% 30.14 in 10.0 mi WNW 6.9 mph - N/A   Clear
4:35 PM 43.3 °F 39.9 °F 29.8 °F 59% 30.14 in 10.0 mi WNW 5.8 mph - N/A   Clear
4:55 PM 41.0 °F 36.4 °F 29.5 °F 64% 30.14 in 10.0 mi WNW 6.9 mph - N/A   Clear
5:15 PM 40.5 °F 36.5 °F 30.0 °F 66% 30.14 in 10.0 mi WNW 5.8 mph - N/A   Clear
5:35 PM 39.4 °F 35.2 °F 29.8 °F 69% 30.15 in 10.0 mi WNW 5.8 mph - N/A   Clear
5:55 PM 37.6 °F 33.1 °F 29.5 °F 73% 30.15 in 10.0 mi NW 5.8 mph - N/A   Clear
6:15 PM 36.1 °F 32.3 °F 29.3 °F 76% 30.15 in 10.0 mi NW 4.6 mph - N/A   Clear
6:35 PM 35.6 °F - 30.2 °F 81% 30.15 in 10.0 mi Calm Calm - N/A   Clear
6:55 PM 35.6 °F - 29.1 °F 77% 30.15 in 10.0 mi Calm Calm - N/A   Clear
7:15 PM 33.6 °F 28.4 °F 28.9 °F 83% 30.15 in 10.0 mi NNW 5.8 mph - N/A   Clear
7:35 PM 33.6 °F 28.4 °F 28.4 °F 81% 30.15 in 10.0 mi NE 5.8 mph - N/A   Clear
7:55 PM 36.1 °F 32.3 °F 30.4 °F 80% 30.15 in 10.0 mi ENE 4.6 mph - N/A   Clear
8:15 PM 34.2 °F 29.0 °F 29.7 °F 84% 30.15 in 10.0 mi ENE 5.8 mph - N/A   Clear
8:35 PM 35.1 °F 32.2 °F 31.1 °F 85% 30.15 in 10.0 mi NE 3.5 mph - N/A   Clear
8:55 PM 33.8 °F - 30.4 °F 87% 30.16 in 10.0 mi Calm Calm - N/A   Unknown
9:15 PM 32.0 °F - 29.7 °F 91% 30.16 in 10.0 mi Calm Calm - N/A   Unknown
9:35 PM 31.6 °F - 29.1 °F 90% 30.16 in 10.0 mi Calm Calm - N/A   Unknown
9:55 PM 29.7 °F 26.1 °F 27.5 °F 92% 30.16 in 7.0 mi NNW 3.5 mph - N/A   Unknown
10:15 PM 29.5 °F 23.4 °F 27.9 °F 94% 30.15 in 10.0 mi North 5.8 mph - N/A   Clear
10:35 PM 30.7 °F 24.1 °F 28.6 °F 92% 30.15 in 10.0 mi North 6.9 mph - N/A   Clear
10:55 PM 29.8 °F 24.9 °F 28.4 °F 94% 30.16 in 10.0 mi North 4.6 mph - N/A   Clear